current

24-hour

48-hour



Kentucky State Forecast

Western KY:
Central KY:
Eastern KY:

Specific and detailed farm-by-farm weather forecast information is available in your Point Ag Forecast. New County Ag Weather Page, Current Conditions:Kentucky
, U.S.

USDA's Kentucky Crop and Weather Report
Released: May 31, 2016 Issue: 13-16

Agricultural News: Kentucky experienced above normal temperatures and near normal 
rainfall over the past week. Precipitation for the week totaled 1.09 inches, 0.02 
inches below normal. Temperatures averaged 70 degrees for the week, 2 degrees above 
normal. Topsoil moisture was rated 3 percent short, 63 percent adequate and 34 
percent surplus. Subsoil moisture was rated 2 percent short, 70 percent adequate, and 
28 percent surplus. Days suitable for fieldwork averaged 3.1 out of a possible seven.

More here.
...or [mp3].


Mouseover to pause! Click here to zoom!

Kentucky State Forecast

Western KY:
Central KY:
Eastern KY:

Specific and detailed farm-by-farm weather forecast information is available in your Point Ag Forecast. New County Ag Weather Page, Current Conditions:Kentucky
, U.S. Mouseover to pause! Click here to zoom!
Mouseover to pause!

028 
ASUS43 KLMK 221310
RWRKY 
KENTUCKY REGIONAL WEATHER ROUNDUP
NATIONAL WEATHER SERVICE LOUISVILLE KY
900 AM EDT SAT SEP 22 2018

NOTE "FAIR" INDICATES FEW OR NO CLOUDS BELOW 12,000 FEET
WITH NO SIGNIFICANT WEATHER AND/OR OBSTRUCTIONS TO VISIBILITY.

KYZ001>023-026-027-061>063-070>075-221400-
WESTERN AND SOUTH CENTRAL KENTUCKY
  
CITY           SKY/WX    TMP DP  RH WIND       PRES   REMARKS
PADUCAH        HVY RAIN  60  58  92 NE10      30.16S FOG              
HENDERSON      PTSUNNY   64  57  78 NE7       30.19R                  
OWENSBORO      CLOUDY    65  58  78 NE9       30.18R                  
HOPKINSVILLE   CLOUDY    66  59  80 N10       30.14R                  
BOWLING GREEN  CLOUDY    68  62  81 VRB7      30.13S                  
GLASGOW        CLOUDY    66  63  91 N5        30.13S                  
$$

KYZ024-025-028>034-038-045-046-053-221400-
NORTH CENTRAL KENTUCKY
  
CITY           SKY/WX    TMP DP  RH WIND       PRES   REMARKS
LOUISVILLE/SDF CLOUDY    66  55  67 NE10      30.18F                  
LOUISVILLE/LOU PTSUNNY   66  56  70 N12       30.18F                  
FORT KNOX      CLOUDY    64  55  72 NE9       30.17F                  
$$

KYZ035>037-039>044-047>052-055>060-089>105-221400-
NORTHEAST KENTUCKY
  
CITY           SKY/WX    TMP DP  RH WIND       PRES   REMARKS
LEXINGTON      CLOUDY    64  56  75 NE13      30.18S                  
COVINGTON      CLOUDY    63  52  67 NE14      30.21F                  
FRANKFORT      CLOUDY    64  56  75 NE6       30.18R                  
$$

KYZ054-064>069-076>088-106>120-221400-
SOUTHEAST KENTUCKY
  
CITY           SKY/WX    TMP DP  RH WIND       PRES   REMARKS
JACKSON        CLOUDY    68  66  93 CALM      30.16F FOG              
LONDON         LGT RAIN  71  70  96 E5        30.15S                  
SOMERSET       CLOUDY    70  70 100 CALM      30.15S                  
MIDDLESBORO    PTSUNNY   70  70 100 CALM      30.15F                  
MONTICELLO     RAIN      72  70  94 VRB6      30.16R FOG              
$$

  


 Mouseover to pause! Click here  to zoom!


Mouseover to pause!...... Western KY .TODAY...Showers. Highs in the upper 60s. Northeast winds around 10 mph. Chance of precipitation 90 percent. Central KY .TODAY...Cooler. Cloudy with a 40 percent chance of showers. Highs in the upper 60s. Northeast winds around 10 mph. Eastern KY .TODAY...Cloudy with a 50 percent chance of showers. Highs in the lower 70s. Light winds.